When you browse on this site, cookies collect data to enhance your experience and personalize the content and advertising you see.
Visit our Privacy Policy to learn more. By continuing to use the site, you agree to this use of cookies and data.
  • In Lithuania
  • List of Countries
  • For 7 days
  • Water Temperature
  • Satellite Maps
  • Weather Map
  • Weather Widgets
  • user-avatar
    Login

    Hourly Weather Borowki

    Today, 18 February, Monday

    Time Temperature Precipitation Wind Pressure Humidity
    00:00 +5°C° 0 mm 2 mps 761 mmHg 95%
    01:00 +5°C° 0 mm 1 mps 761 mmHg 95%
    02:00 +4°C° 0 mm 2 mps 761 mmHg 95%
    03:00 +4°C° 0 mm 2 mps 761 mmHg 95%
    04:00 +3°C° 0 mm 2 mps 761 mmHg 95%
    05:00 +3°C° 0 mm 2 mps 760 mmHg 94%
    06:00 +3°C° 0 mm 2 mps 760 mmHg 93%
    07:00 +2°C° 0 mm 2 mps 760 mmHg 91%
    08:00 +3°C° 0 mm 3 mps 760 mmHg 86%
    09:00 +4°C° 0 mm 3 mps 760 mmHg 80%
    10:00 +5°C° 0 mm 3 mps 760 mmHg 75%
    11:00 +7°C° 0 mm 3 mps 760 mmHg 70%
    12:00 +8°C° 0 mm 3 mps 759 mmHg 65%
    13:00 +8°C° 0 mm 4 mps 759 mmHg 59%
    14:00 +9°C° 0 mm 3 mps 759 mmHg 60%
    15:00 +9°C° 0 mm 3 mps 758 mmHg 61%
    16:00 +9°C° 0 mm 3 mps 758 mmHg 61%
    17:00 +8°C° 0 mm 3 mps 758 mmHg 65%
    18:00 +7°C° 0 mm 3 mps 757 mmHg 69%
    19:00 +6°C° 0 mm 2 mps 757 mmHg 72%
    20:00 +5°C° 0 mm 2 mps 757 mmHg 73%
    21:00 +5°C° 0 mm 2 mps 757 mmHg 73%
    22:00 +5°C° 0 mm 2 mps 757 mmHg 74%
    23:00 +3°C° 0 mm 3 mps 756 mmHg 75%

    Tomorrow, 19 February, Tuesday

    Time Temperature Precipitation Wind Pressure Humidity
    00:00 +3°C° 0 mm 3 mps 756 mmHg 76%
    01:00 +3°C° 0 mm 3 mps 756 mmHg 77%
    02:00 +2°C° 0 mm 3 mps 755 mmHg 78%
    03:00 +2°C° 0 mm 3 mps 755 mmHg 78%
    04:00 +2°C° 0 mm 3 mps 755 mmHg 78%
    05:00 +1°C° 0 mm 4 mps 754 mmHg 79%
    06:00 0°C° 0 mm 4 mps 754 mmHg 80%
    07:00 0°C° 0 mm 4 mps 753 mmHg 81%
    08:00 +2°C° 0 mm 5 mps 753 mmHg 77%
    09:00 +3°C° 0 mm 5 mps 753 mmHg 73%
    10:00 +4°C° 0 mm 6 mps 753 mmHg 70%
    11:00 +7°C° 0 mm 6 mps 753 mmHg 68%
    12:00 +8°C° 0 mm 6 mps 753 mmHg 66%
    13:00 +9°C° 0 mm 6 mps 753 mmHg 65%
    14:00 +8°C° 0.1 mm 6 mps 753 mmHg 69%
    15:00 +8°C° 0.1 mm 5 mps 753 mmHg 74%
    16:00 +7°C° 0.1 mm 5 mps 753 mmHg 78%
    17:00 +7°C° 0.1 mm 5 mps 753 mmHg 79%
    18:00 +6°C° 0.1 mm 5 mps 753 mmHg 80%
    19:00 +6°C° 0.1 mm 5 mps 754 mmHg 80%
    20:00 +6°C° 0.1 mm 5 mps 754 mmHg 81%
    21:00 +5°C° 0.1 mm 5 mps 754 mmHg 81%
    22:00 +5°C° 0.1 mm 5 mps 754 mmHg 81%
    23:00 +5°C° 0 mm 5 mps 754 mmHg 82%

    Day after tomorrow, 20 February, Wednesday

    Time Temperature Precipitation Wind Pressure Humidity
    00:00 +3°C° 0 mm 5 mps 754 mmHg 84%
    01:00 +3°C° 0 mm 5 mps 754 mmHg 85%
    02:00 +3°C° 0 mm 5 mps 755 mmHg 84%
    03:00 +3°C° 0 mm 6 mps 755 mmHg 83%
    04:00 +3°C° 0 mm 6 mps 755 mmHg 82%
    05:00 +3°C° 0 mm 6 mps 755 mmHg 81%
    06:00 +3°C° 0 mm 6 mps 755 mmHg 81%
    07:00 +2°C° 0 mm 6 mps 756 mmHg 81%
    08:00 +3°C° 0 mm 6 mps 756 mmHg 80%
    09:00 +3°C° 0 mm 6 mps 757 mmHg 79%
    10:00 +3°C° 0 mm 6 mps 757 mmHg 78%
    11:00 +4°C° 0 mm 6 mps 757 mmHg 77%
    12:00 +4°C° 0 mm 6 mps 757 mmHg 75%
    13:00 +5°C° 0 mm 5 mps 758 mmHg 74%
    14:00 +5°C° 0 mm 5 mps 758 mmHg 74%
    15:00 +5°C° 0 mm 5 mps 758 mmHg 75%
    16:00 +6°C° 0 mm 4 mps 758 mmHg 75%
    17:00 +5°C° 0 mm 4 mps 758 mmHg 77%
    18:00 +5°C° 0 mm 4 mps 758 mmHg 79%
    19:00 +5°C° 0 mm 3 mps 759 mmHg 82%
    20:00 +5°C° 0 mm 3 mps 759 mmHg 83%
    21:00 +5°C° 0 mm 4 mps 759 mmHg 84%
    22:00 +5°C° 0 mm 4 mps 759 mmHg 86%
    23:00 +5°C° 0.2 mm 4 mps 759 mmHg 86%

    21 February, Thursday

    Time Temperature Precipitation Wind Pressure Humidity
    00:00 +5°C° 0.2 mm 4 mps 758 mmHg 86%
    01:00 +5°C° 0.2 mm 4 mps 758 mmHg 86%
    02:00 +5°C° 0.1 mm 5 mps 758 mmHg 86%
    03:00 +5°C° 0.1 mm 5 mps 758 mmHg 86%
    04:00 +3°C° 0.1 mm 5 mps 757 mmHg 87%
    05:00 +4°C° 0.4 mm 6 mps 757 mmHg 87%
    06:00 +4°C° 0.4 mm 6 mps 757 mmHg 88%
    07:00 +4°C° 0.4 mm 6 mps 758 mmHg 89%
    08:00 +4°C° 0.1 mm 6 mps 758 mmHg 89%
    09:00 +6°C° 0.1 mm 5 mps 758 mmHg 90%
    10:00 +6°C° 0.1 mm 5 mps 758 mmHg 90%
    11:00 +6°C° 0.1 mm 5 mps 758 mmHg 89%
    12:00 +7°C° 0.1 mm 5 mps 758 mmHg 88%
    13:00 +7°C° 0.1 mm 5 mps 759 mmHg 87%
    14:00 +7°C° 0.1 mm 5 mps 759 mmHg 88%
    15:00 +7°C° 0.1 mm 4 mps 759 mmHg 89%
    16:00 +7°C° 0.1 mm 4 mps 759 mmHg 89%
    17:00 +7°C° 0 mm 4 mps 760 mmHg 88%
    18:00 +6°C° 0 mm 4 mps 760 mmHg 87%
    19:00 +6°C° 0 mm 4 mps 761 mmHg 86%
    20:00 +6°C° 0 mm 4 mps 761 mmHg 88%
    21:00 +5°C° 0 mm 4 mps 762 mmHg 89%
    22:00 +5°C° 0 mm 4 mps 762 mmHg 90%
    23:00 +5°C° 0 mm 4 mps 763 mmHg 91%

    22 February, Friday

    Time Temperature Precipitation Wind Pressure Humidity
    00:00 +4°C° 0 mm 4 mps 764 mmHg 92%
    01:00 +4°C° 0 mm 4 mps 764 mmHg 92%
    02:00 +4°C° 0 mm 4 mps 765 mmHg 91%
    03:00 +4°C° 0 mm 3 mps 765 mmHg 90%
    04:00 +4°C° 0 mm 3 mps 766 mmHg 89%
    05:00 +3°C° 0 mm 3 mps 767 mmHg 88%
    06:00 +2°C° 0 mm 3 mps 768 mmHg 87%
    07:00 +1°C° 0 mm 3 mps 769 mmHg 86%
    08:00 +1°C° 0 mm 3 mps 769 mmHg 79%
    09:00 +2°C° 0 mm 3 mps 770 mmHg 72%
    10:00 +2°C° 0 mm 3 mps 771 mmHg 65%
    11:00 +3°C° 0 mm 3 mps 771 mmHg 59%
    12:00 +4°C° 0 mm 3 mps 772 mmHg 54%
    13:00 +5°C° 0 mm 2 mps 772 mmHg 49%
    14:00 +5°C° 0 mm 2 mps 773 mmHg 49%
    15:00 +5°C° 0 mm 2 mps 773 mmHg 49%
    16:00 +5°C° 0 mm 2 mps 773 mmHg 49%
    17:00 +5°C° 0 mm 2 mps 773 mmHg 54%
    18:00 +5°C° 0 mm 1 mps 774 mmHg 58%
    19:00 +4°C° 0 mm 1 mps 774 mmHg 62%
    20:00 +2°C° 0 mm 2 mps 774 mmHg 64%
    21:00 +2°C° 0 mm 2 mps 775 mmHg 66%
    22:00 +2°C° 0 mm 2 mps 775 mmHg 68%
    23:00 +1°C° 0 mm 2 mps 775 mmHg 70%

    23 February, Saturday

    Time Temperature Precipitation Wind Pressure Humidity
    00:00 +1°C° 0 mm 2 mps 774 mmHg 71%
    01:00 0°C° 0 mm 3 mps 774 mmHg 73%
    02:00 0°C° 0 mm 3 mps 774 mmHg 75%
    03:00 0°C° 0 mm 3 mps 774 mmHg 76%
    04:00 +1°C° 0 mm 2 mps 773 mmHg 78%
    05:00 0°C° 0 mm 3 mps 773 mmHg 79%
    06:00 +1°C° 0 mm 3 mps 773 mmHg 80%
    07:00 +1°C° 0 mm 3 mps 772 mmHg 80%
    08:00 +1°C° 0 mm 4 mps 772 mmHg 83%
    09:00 +3°C° 0 mm 4 mps 772 mmHg 85%
    10:00 +4°C° 0 mm 4 mps 772 mmHg 88%
    11:00 +6°C° 0 mm 5 mps 771 mmHg 86%
    12:00 +7°C° 0 mm 5 mps 771 mmHg 83%
    13:00 +8°C° 0 mm 6 mps 770 mmHg 81%
    14:00 +9°C° 0 mm 5 mps 770 mmHg 78%
    15:00 +9°C° 0 mm 5 mps 770 mmHg 75%
    16:00 +10°C° 0 mm 5 mps 770 mmHg 72%
    17:00 +9°C° 0 mm 5 mps 769 mmHg 76%
    18:00 +8°C° 0 mm 5 mps 769 mmHg 79%
    19:00 +7°C° 0 mm 4 mps 769 mmHg 82%
    20:00 +6°C° 0 mm 4 mps 769 mmHg 83%
    21:00 +6°C° 0 mm 4 mps 769 mmHg 83%
    22:00 +5°C° 0 mm 4 mps 769 mmHg 83%
    23:00 +5°C° 0 mm 4 mps 769 mmHg 84%
    Show more